Burlington, VT

11:53 AM EST on December 16, 2017 (GMT -0500)
Burlington International

Weather History for KBTV - January, 2014

Change the Weather History Date:

Tuesday, January 14, 2014

  Actual Average Record
Temperature  
Mean Temperature 42 °F 18 °F  
Max Temperature 46 °F 27 °F 60 °F (1995)
Min Temperature 38 °F 10 °F -26 °F (1914)
Degree Days  
Heating Degree Days 23 47  
Month to date heating degree days 617 643  
Since 1 July heating degree days 3390 3402  
Cooling Degree Days 0 0  
Month to date cooling degree days 0 0  
Year to date cooling degree days 0 0  
Moisture  
Dew Point 38 °F    
Average Humidity 79    
Maximum Humidity 100    
Minimum Humidity 58    
Precipitation  
Precipitation 0.26 in 0.06 in 1.03 in (2005)
Month to date precipitation 2.06 0.92  
Year to date precipitation 2.06 0.92  
Snow  
Snow 0.00 in 0.70 in 23.10 in (1934)
Month to date snowfall 3.7 9.5  
Since 1 July snowfall 25.4 32.8  
Snow Depth 2.00 in    
Sea Level Pressure  
Sea Level Pressure 29.71 in    
Wind  
Wind Speed 9 mph (SSW)    
Max Wind Speed 23 mph    
Max Gust Speed 37 mph    
Visibility 6 miles    
Events Fog , Rain    
T = Trace of Precipitation, MM = Missing Value Source: NWS Daily Summary

Daily Weather History Graph

Daily Weather History Graph

Search for Another Location

Airport or City:

Trip Planner

Search our weather history database for the weather conditions in past years. The results will help you decide how hot, cold, wet, or windy it might be!

Date:

Astronomy

Jan. 14, 2014 Rise Set
Actual Time 7:26 AM EST 4:37 PM EST
Civil Twilight 6:53 AM EST 5:10 PM EST
Nautical Twilight 6:17 AM EST 5:46 PM EST
Astronomical Twilight 5:42 AM EST 6:21 PM EST
Moon 3:41 PM EST (1/14) 5:57 AM EST (1/14)
Length of Visible Light 10h 16m
Length of Day
9h 11m
Waxing Gibbous, 98% of the Moon is Illuminated
Jan 14
Waxing Gibbous
Jan 15
Full
Jan 24
Last Quarter
Jan 30
New
Feb 6
First Quarter

Hourly Weather History & Observations

Time (EST) Temp. Windchill Dew Point Humidity Pressure Visibility Wind Dir Wind Speed Gust Speed Precip Events Conditions
12:54 AM 46.0 °F 38.0 °F 33.1 °F 61% 29.72 in 10.0 mi South 21.9 mph 28.8 mph N/A   Overcast
1:54 AM 43.0 °F 35.7 °F 36.0 °F 76% 29.73 in 9.0 mi South 15.0 mph 27.6 mph 0.00 in Rain Light Rain
2:54 AM 42.1 °F 35.2 °F 36.0 °F 79% 29.71 in 10.0 mi South 12.7 mph - 0.02 in   Overcast
3:54 AM 43.0 °F 35.4 °F 36.0 °F 76% 29.70 in 10.0 mi South 16.1 mph 25.3 mph N/A   Overcast
4:54 AM 43.0 °F 36.0 °F 36.0 °F 76% 29.69 in 10.0 mi South 13.8 mph - N/A   Overcast
5:54 AM 43.0 °F 36.0 °F 36.0 °F 76% 29.68 in 10.0 mi South 13.8 mph - N/A   Overcast
6:54 AM 44.1 °F 38.1 °F 36.0 °F 73% 29.70 in 10.0 mi South 11.5 mph - N/A   Overcast
7:54 AM 43.0 °F 37.2 °F 36.0 °F 76% 29.71 in 10.0 mi South 10.4 mph - N/A   Overcast
8:54 AM 43.0 °F 36.0 °F 37.9 °F 82% 29.71 in 10.0 mi South 13.8 mph - 0.00 in Rain Light Rain
9:54 AM 44.1 °F 38.1 °F 39.6 °F 84% 29.70 in 10.0 mi South 11.5 mph - 0.01 in   Overcast
10:54 AM 44.1 °F 39.0 °F 39.9 °F 85% 29.71 in 10.0 mi SSW 9.2 mph - 0.00 in Rain Light Rain
11:54 AM 43.0 °F 37.7 °F 39.9 °F 89% 29.70 in 7.0 mi SSW 9.2 mph - 0.01 in Rain Light Rain
12:54 PM 43.0 °F 37.7 °F 39.9 °F 89% 29.70 in 5.0 mi South 9.2 mph - 0.05 in Rain Light Rain
1:54 PM 43.0 °F 38.8 °F 39.9 °F 89% 29.69 in 5.0 mi South 6.9 mph - 0.04 in Rain Light Rain
2:54 PM 43.0 °F 39.5 °F 39.9 °F 89% 29.70 in 5.0 mi SSW 5.8 mph - 0.03 in Rain Light Rain
3:54 PM 42.1 °F 40.2 °F 39.9 °F 92% 29.69 in 3.0 mi South 3.5 mph - 0.04 in Rain Light Rain
4:35 PM 42.1 °F 38.4 °F 39.9 °F 92% 29.70 in 3.0 mi WSW 5.8 mph - 0.01 in Rain Light Rain
4:40 PM 41.0 °F 38.0 °F 39.9 °F 96% 29.70 in 3.0 mi SW 4.6 mph - 0.01 in Rain Light Rain
4:54 PM 41.0 °F 38.0 °F 39.0 °F 93% 29.72 in 3.0 mi WSW 4.6 mph - 0.02 in Rain Light Rain
5:32 PM 41.0 °F 39.0 °F 39.9 °F 96% 29.69 in 4.0 mi South 3.5 mph - 0.02 in Rain Light Rain
5:43 PM 39.9 °F - 39.9 °F 100% 29.69 in 4.0 mi Calm Calm - 0.02 in Rain Light Rain
5:54 PM 39.9 °F 36.7 °F 39.0 °F 97% 29.71 in 4.0 mi WSW 4.6 mph - 0.03 in Rain Light Rain
6:02 PM 41.0 °F - 39.0 °F 93% 29.69 in 2.0 mi Calm Calm - 0.00 in Rain Light Rain
6:45 PM 39.9 °F 37.8 °F 39.0 °F 97% 29.70 in 2.0 mi West 3.5 mph - 0.00 in Rain Light Rain
6:54 PM 39.9 °F 36.7 °F 39.0 °F 97% 29.72 in 1.2 mi NW 4.6 mph - 0.00 in Rain Light Rain
7:54 PM 39.0 °F 35.7 °F 37.9 °F 96% 29.72 in 0.5 mi NNW 4.6 mph - 0.01 in Fog Fog
8:49 PM 39.2 °F - 37.4 °F 93% 29.73 in 3.0 mi Calm Calm - N/A   Overcast
8:54 PM 37.9 °F - 37.0 °F 97% 29.74 in 3.0 mi Calm Calm - N/A   Overcast
9:21 PM 37.9 °F - 37.0 °F 97% 29.74 in 4.0 mi Calm Calm - N/A   Overcast
9:54 PM 39.0 °F 34.8 °F 36.0 °F 89% 29.77 in 6.0 mi NW 5.8 mph - N/A   Overcast
10:54 PM 41.0 °F 38.0 °F 34.0 °F 76% 29.79 in 8.0 mi North 4.6 mph - N/A   Overcast
11:54 PM 39.9 °F 36.7 °F 32.0 °F 73% 29.80 in 10.0 mi North 4.6 mph - N/A   Overcast